Location: Centerville
(32.8776°N, 96.6203°W)
Time: 00:37:16
(UTC+00:00)

Cosmos 2237 Rocket - Pass Details

Date: 17 June 2021
Orbit: 835 x 850 km, 71.0° (Epoch: 01 August)

Event Time Altitude Azimuth Distance (km) Brightness Sun altitude
Exits shadow 06:10:35 40° 318° (NW) 1,206 3.2 -33.6°
Drops below altitude 10° 06:15:04 10° 6° (N) 2,449 5.4 -33.7°
Sets 06:17:38 0° 13° (NNE) 3,386 6.3 -33.7°
